Date String (YYYY-MM-DD hh:mm:ss) UTC,Instrument flags,Ambient pressure (hPa),Sample flow (lpm),Bypass flow (lpm),Sample temperature (°C),Ambient temperature (°C),ASC tube jacket temperature (°C),LED temperature (°C),Box temperature (°C),Sample RH (%),Span deviation,Mass concentration (μg/m³),Mass concentration (μg/m³),Mass concentration (μg/m³)
DateTimeUTC,F1_M11,P_M11,Q1_M11,Q2_M11,T1_M11,T2_M11,T3_M11,T4_M11,T5_M11,U1_M11,ZSPAN_M11,X2_M11,X0_M11,X1_M11
2021-10-07 15:00:00,,0829.0,5.00,0.00,30.2,29.3,00.0,39.3,32.0,18.1,0000.0,0003.48,0011.27,0002.59
2021-10-07 15:01:00,,0829.0,5.00,0.00,30.2,29.3,00.0,39.3,32.0,16.6,0000.0,0003.45,0010.95,0002.60
2021-10-07 15:02:00,,0829.0,5.01,0.00,30.3,29.3,00.0,39.3,32.0,15.8,0000.0,0003.42,0010.44,0002.62
2021-10-07 15:03:00,,0829.0,4.98,0.00,30.3,29.4,00.0,39.3,32.0,15.7,0000.0,0003.36,0009.31,0002.63
2021-10-07 15:04:00,,0829.0,5.00,0.00,30.3,29.4,00.0,39.3,32.1,15.6,0000.0,0003.37,0009.16,0002.63
2021-10-07 15:05:00,,0829.1,5.01,0.00,30.3,29.4,00.0,39.3,32.1,16.3,0000.0,0003.33,0008.85,0002.63
2021-10-07 15:06:00,,0829.0,5.00,0.00,30.3,29.5,00.0,39.3,32.1,15.7,0000.0,0003.33,0008.28,0002.63
2021-10-07 15:07:00,,0828.7,4.99,0.00,30.4,29.5,00.0,39.4,32.1,17.5,0000.0,0003.36,0008.17,0002.63
2021-10-07 15:08:00,,0828.8,5.01,0.00,30.4,29.5,00.0,39.4,32.2,16.9,0000.0,0003.38,0008.26,0002.64
2021-10-07 15:09:00,,0829.0,5.01,0.00,30.4,29.6,00.0,39.4,32.2,15.9,0000.0,0003.40,0008.30,0002.66
2021-10-07 15:10:00,,0828.9,4.99,0.00,30.4,29.6,00.0,39.4,32.2,15.9,0000.0,0003.36,0008.15,0002.66
2021-10-07 15:11:00,,0828.8,5.00,0.00,30.5,29.6,00.0,39.4,32.2,16.1,0000.0,0003.32,0007.57,0002.67
2021-10-07 15:12:00,,0828.8,5.00,0.00,30.5,29.6,00.0,39.5,32.3,15.9,0000.0,0003.34,0006.56,0002.68
2021-10-07 15:13:00,,0828.8,5.00,0.00,30.5,29.7,00.0,39.5,32.3,16.0,0000.0,0003.36,0006.42,0002.68
2021-10-07 15:14:00,,0829.1,4.98,0.00,30.5,29.3,00.0,39.5,32.2,14.5,0000.0,0003.35,0006.28,0002.68
2021-10-07 15:15:00,,0829.0,5.00,0.00,30.4,27.3,00.0,39.5,31.7,14.8,0000.0,0003.34,0006.12,0002.70
2021-10-07 15:16:00,,0828.6,5.00,0.00,30.2,26.3,00.0,39.4,31.4,15.0,0000.0,0003.33,0006.08,0002.71
2021-10-07 15:17:00,,0828.9,5.01,0.00,30.1,26.7,00.0,39.4,31.5,15.6,0000.0,0003.35,0005.94,0002.71
2021-10-07 15:18:00,,0828.7,5.00,0.00,30.1,27.1,00.0,39.3,31.5,17.0,0000.0,0003.34,0005.93,0002.71
2021-10-07 15:19:00,,0829.0,5.00,0.00,30.0,27.5,00.0,39.3,31.6,20.3,0000.0,0003.38,0006.58,0002.69
2021-10-07 15:20:00,,0829.3,5.01,0.00,30.0,27.9,00.0,39.3,31.6,20.4,0000.0,0003.45,0006.82,0002.69
2021-10-07 15:21:00,,0829.0,5.00,0.00,30.0,28.2,00.0,39.2,31.7,20.7,0000.0,0003.48,0006.90,0002.67
2021-10-07 15:22:00,,0829.1,4.98,0.00,30.0,28.4,00.0,39.2,31.7,20.4,0000.0,0003.54,0007.38,0002.63
2021-10-07 15:23:00,,0829.1,5.01,0.00,30.1,28.6,00.0,39.2,31.8,20.2,0000.0,0003.55,0007.41,0002.61
2021-10-07 15:24:00,,0829.2,5.00,0.00,30.1,28.7,00.0,39.2,31.8,20.2,0000.0,0003.57,0008.59,0002.59
2021-10-07 15:25:00,,0829.1,5.00,0.00,30.1,28.9,00.0,39.2,31.9,20.0,0000.0,0003.61,0009.84,0002.58
2021-10-07 15:26:00,,0829.1,4.99,0.00,30.1,29.0,00.0,39.2,31.9,19.5,0000.0,0003.65,0010.18,0002.57
2021-10-07 15:27:00,,0829.1,5.00,0.00,30.2,29.1,00.0,39.2,32.0,19.9,0000.0,0003.75,0011.38,0002.55
2021-10-07 15:28:00,,0829.2,5.01,0.00,30.2,29.2,00.0,39.2,32.0,20.0,0000.0,0003.80,0011.65,0002.54
2021-10-07 15:29:00,,0829.2,4.99,0.00,30.2,29.2,00.0,39.2,32.0,19.9,0000.0,0003.84,0011.80,0002.54
2021-10-07 15:30:00,,0829.0,5.00,0.00,30.3,29.3,00.0,39.2,32.0,20.1,0000.0,0003.82,0012.16,0002.55
2021-10-07 15:31:00,,0828.7,5.00,0.00,30.3,29.3,00.0,39.3,32.1,19.3,0000.0,0003.76,0012.51,0002.54
2021-10-07 15:32:00,,0828.8,4.99,0.00,30.3,29.4,00.0,39.3,32.1,18.4,0000.0,0003.78,0012.70,0002.54
2021-10-07 15:33:00,,0828.7,5.01,0.00,30.4,29.4,00.0,39.3,32.2,17.9,0000.0,0003.77,0012.73,0002.57
2021-10-07 15:34:00,,0828.7,5.01,0.00,30.4,29.5,00.0,39.3,32.2,18.5,0000.0,0003.76,0013.02,0002.58
2021-10-07 15:35:00,,0828.7,5.00,0.00,30.4,29.6,00.0,39.3,32.2,18.4,0000.0,0003.72,0012.73,0002.58
2021-10-07 15:36:00,,0828.7,5.00,0.00,30.4,29.6,00.0,39.4,32.2,18.3,0000.0,0003.72,0012.18,0002.58
2021-10-07 15:37:00,,0828.7,5.00,0.00,30.5,29.6,00.0,39.4,32.3,17.5,0000.0,0003.71,0012.27,0002.56
2021-10-07 15:38:00,,0828.7,5.01,0.00,30.4,28.4,00.0,39.4,32.0,17.2,0000.0,0003.65,0011.44,0002.57
2021-10-07 15:39:00,,0829.1,4.99,0.00,30.3,26.7,00.0,39.4,31.5,17.3,0000.0,0003.58,0011.28,0002.56
2021-10-07 15:40:00,,0829.2,5.01,0.00,30.2,26.7,00.0,39.4,31.5,16.7,0000.0,0003.51,0011.51,0002.55
2021-10-07 15:41:00,,0829.2,5.00,0.00,30.1,27.1,00.0,39.3,31.5,16.4,0000.0,0003.45,0010.80,0002.55
2021-10-07 15:42:00,,0829.0,5.00,0.00,30.0,27.5,00.0,39.3,31.5,16.2,0000.0,0003.39,0010.11,0002.56
2021-10-07 15:43:00,,0828.9,5.00,0.00,30.0,27.9,00.0,39.2,31.6,18.6,0000.0,0003.38,0010.58,0002.55
2021-10-07 15:44:00,,0828.7,4.99,0.00,30.0,28.2,00.0,39.2,31.7,19.1,0000.0,0003.38,0010.82,0002.56
2021-10-07 15:45:00,,0828.7,4.99,0.00,30.0,28.4,00.0,39.2,31.8,19.4,0000.0,0003.38,0010.74,0002.57
2021-10-07 15:46:00,,0828.7,5.01,0.00,30.1,28.6,00.0,39.2,31.8,19.6,0000.0,0003.41,0010.20,0002.60
2021-10-07 15:47:00,,0829.0,5.01,0.00,30.1,28.8,00.0,39.2,31.9,19.5,0000.0,0003.50,0009.90,0002.64
2021-10-07 15:48:00,,0829.1,4.99,0.00,30.1,28.9,00.0,39.2,31.9,19.4,0000.0,0003.51,0010.74,0002.69
2021-10-07 15:49:00,,0828.9,5.01,0.00,30.2,29.0,00.0,39.2,31.9,18.7,0000.0,0003.53,0010.39,0002.73
2021-10-07 15:50:00,,0828.7,5.00,0.00,30.2,29.1,00.0,39.2,32.0,18.8,0000.0,0003.60,0010.77,0002.77
2021-10-07 15:51:00,,0829.0,4.99,0.00,30.2,29.2,00.0,39.2,32.0,19.0,0000.0,0003.65,0010.75,0002.82
2021-10-07 15:52:00,,0829.1,5.02,0.00,30.2,29.3,00.0,39.2,32.1,19.1,0000.0,0003.76,0011.36,0002.86
2021-10-07 15:53:00,,0829.2,4.99,0.00,30.3,29.4,00.0,39.3,32.1,18.7,0000.0,0003.85,0012.55,0002.91
2021-10-07 15:54:00,,0829.2,5.01,0.00,30.3,29.4,00.0,39.3,32.1,18.3,0000.0,0003.88,0012.43,0002.96
2021-10-07 15:55:00,,0829.2,5.00,0.00,30.3,29.5,00.0,39.3,32.2,17.7,0000.0,0003.96,0012.52,0003.00
2021-10-07 15:56:00,,0829.1,5.00,0.00,30.4,29.6,00.0,39.3,32.2,17.9,0000.0,0003.98,0012.53,0003.03
2021-10-07 15:57:00,,0828.7,5.00,0.00,30.4,28.7,00.0,39.3,32.0,18.1,0000.0,0003.98,0012.84,0003.06
2021-10-07 15:58:00,,0828.7,5.01,0.00,30.2,26.8,00.0,39.3,31.5,18.1,0000.0,0003.92,0012.46,0003.07
2021-10-07 15:59:00,,0828.8,4.99,0.00,30.1,26.5,00.0,39.3,31.4,18.4,0000.0,0003.90,0011.26,0003.07
